Change the Weather History Date:

Friday, February 15, 2013

  Actual Average Record
Temperature  
Mean Temperature 26 °F -  
Max Temperature 32 °F 35 °F 65 °F (1954)
Min Temperature 21 °F 19 °F -12 °F (1963)
Degree Days  
Heating Degree Days 38    
Moisture  
Dew Point 19 °F    
Average Humidity 72    
Maximum Humidity 86    
Minimum Humidity 52    
Precipitation  
Precipitation 0.00 in - - ()
Sea Level Pressure  
Sea Level Pressure 30.06 in    
Wind  
Wind Speed 9 mph (NW)    
Max Wind Speed 17 mph    
Max Gust Speed 23 mph    
Visibility 9 miles    
Events Snow    
Averages and records for this station are not official NWS values.
T = Trace of Precipitation, MM = Missing Value Source: NWS Daily Summary

Daily Weather History Graph

Daily Weather History Graph

Search for Another Location

Airport or City:

Trip Planner

Search our weather history database for the weather conditions in past years. The results will help you decide how hot, cold, wet, or windy it might be!

Date:

Astronomy

Feb. 15, 2013 Rise Set
Actual Time 7:37 AM EST 6:15 PM EST
Civil Twilight 7:09 AM EST 6:44 PM EST
Nautical Twilight 6:36 AM EST 7:17 PM EST
Astronomical Twilight 6:04 AM EST 7:49 PM EST
Moon 10:07 AM EST (2/15) No Moon Set
Length of Visible Light 11h 35m
Length of Day
10h 37m
Waxing Crescent, 30% of the Moon is Illuminated
Feb 15
Waxing Crescent
Feb 17
First Quarter
Feb 25
Full
Mar 4
Last Quarter
Mar 11
New

Hourly Weather History & Observations

Time (EST) Temp. Windchill Dew Point Humidity Pressure Visibility Wind Dir Wind Speed Gust Speed Precip Events Conditions
12:15 AM 32.4 °F 22.1 °F 25.7 °F 76% 29.91 in 10.0 mi West 15.0 mph - N/A   Overcast
12:34 AM 32.2 °F 22.7 °F 25.9 °F 78% 29.91 in 10.0 mi West 12.7 mph 18.4 mph N/A   Overcast
12:55 AM 32.0 °F 23.6 °F 26.2 °F 79% 29.91 in 10.0 mi West 10.4 mph - N/A   Overcast
1:15 AM 32.0 °F 23.6 °F 26.1 °F 79% 29.91 in 10.0 mi West 10.4 mph 17.3 mph N/A   Overcast
1:34 AM 32.0 °F 24.2 °F 25.9 °F 78% 29.92 in 10.0 mi West 9.2 mph - N/A   Overcast
1:55 AM 32.0 °F 24.2 °F 25.7 °F 78% 29.91 in 10.0 mi West 9.2 mph - N/A   Overcast
2:15 AM 32.0 °F 23.6 °F 25.2 °F 76% 29.91 in 10.0 mi West 10.4 mph - N/A   Overcast
2:34 AM 30.7 °F 24.9 °F 24.4 °F 77% 29.92 in 10.0 mi North 5.8 mph - N/A   Overcast
2:55 AM 29.7 °F 21.3 °F 24.4 °F 81% 29.93 in 10.0 mi North 9.2 mph - N/A   Overcast
3:14 AM 29.3 °F 22.3 °F 23.7 °F 80% 29.94 in 10.0 mi North 6.9 mph - N/A   Overcast
3:35 AM 29.3 °F 22.3 °F 23.7 °F 80% 29.94 in 10.0 mi NNW 6.9 mph - N/A   Overcast
3:55 AM 29.3 °F 22.3 °F 23.9 °F 80% 29.95 in 10.0 mi NNW 6.9 mph - N/A   Overcast
4:14 AM 29.3 °F 20.2 °F 23.7 °F 80% 29.95 in 10.0 mi NNW 10.4 mph - N/A   Overcast
4:35 AM 28.8 °F 20.2 °F 21.7 °F 75% 29.96 in 10.0 mi NNW 9.2 mph - N/A Snow Light Snow
4:54 AM 28.2 °F 19.5 °F 20.1 °F 72% 29.97 in 10.0 mi NNW 9.2 mph - N/A   Overcast
5:14 AM 28.0 °F 22.8 °F 20.5 °F 73% 29.97 in 7.0 mi North 4.6 mph 9.2 mph N/A Snow Light Snow
5:35 AM 27.9 °F 24.0 °F 20.1 °F 73% 29.98 in 10.0 mi NNW 3.5 mph - N/A   Overcast
5:54 AM 28.0 °F 21.7 °F 19.8 °F 71% 29.99 in 10.0 mi NNW 5.8 mph - N/A   Overcast
6:15 AM 27.5 °F 21.1 °F 19.4 °F 72% 30.00 in 10.0 mi NNW 5.8 mph - N/A   Overcast
6:35 AM 27.5 °F 23.6 °F 19.4 °F 72% 30.00 in 10.0 mi North 3.5 mph - N/A   Overcast
6:54 AM 27.5 °F 19.3 °F 19.9 °F 73% 30.01 in 10.0 mi North 8.1 mph - N/A   Overcast
7:15 AM 27.1 °F 19.7 °F 20.3 °F 75% 30.02 in 10.0 mi North 6.9 mph - N/A Snow Light Snow
7:35 AM 26.6 °F 17.5 °F 20.1 °F 77% 30.03 in 7.0 mi North 9.2 mph - N/A Snow Light Snow
7:54 AM 26.2 °F 18.6 °F 19.4 °F 75% 30.04 in 10.0 mi North 6.9 mph - N/A Snow Light Snow
8:15 AM 26.1 °F 18.4 °F 19.4 °F 76% 30.05 in 10.0 mi NNW 6.9 mph - N/A   Overcast
8:35 AM 25.9 °F 20.3 °F 19.4 °F 76% 30.06 in 7.0 mi North 4.6 mph - N/A Snow Light Snow
8:54 AM 25.7 °F 18.0 °F 19.9 °F 79% 30.07 in 2.5 mi North 6.9 mph - N/A Snow Light Snow
9:15 AM 25.2 °F 16.5 °F 19.9 °F 81% 30.08 in 1.8 mi North 8.1 mph - N/A Snow Light Snow
9:35 AM 25.5 °F 16.9 °F 18.5 °F 75% 30.09 in 5.0 mi NNW 8.1 mph - N/A Snow Light Snow
9:54 AM 25.7 °F 16.4 °F 18.1 °F 73% 30.09 in 10.0 mi NNW 9.2 mph - N/A Snow Light Snow
10:15 AM 26.6 °F 17.5 °F 18.7 °F 72% 30.09 in 10.0 mi NNW 9.2 mph - N/A   Scattered Clouds
10:34 AM 26.6 °F 19.1 °F 18.3 °F 71% 30.09 in 10.0 mi North 6.9 mph - N/A Snow Light Snow
10:55 AM 28.0 °F 21.7 °F 19.2 °F 70% 30.10 in 10.0 mi NNE 5.8 mph - N/A Snow Light Snow
11:15 AM 27.3 °F 19.9 °F 19.0 °F 71% 30.10 in 7.0 mi North 6.9 mph - N/A Snow Light Snow
11:34 AM 27.7 °F 21.3 °F 19.8 °F 72% 30.09 in 7.0 mi NNW 5.8 mph - N/A Snow Light Snow
11:55 AM 28.2 °F 19.5 °F 19.9 °F 71% 30.10 in 7.0 mi NNW 9.2 mph - N/A Snow Light Snow
12:15 PM 27.7 °F 20.4 °F 19.2 °F 71% 30.10 in 10.0 mi WNW 6.9 mph - N/A   Overcast
12:55 PM 27.5 °F 18.6 °F 18.1 °F 68% 30.10 in 10.0 mi NW 9.2 mph - N/A Snow Light Snow
1:15 PM 29.1 °F 17.9 °F 17.2 °F 61% 30.09 in 10.0 mi WNW 15.0 mph 21.9 mph N/A   Overcast
1:34 PM 29.1 °F 19.4 °F 14.5 °F 55% 30.09 in 10.0 mi NW 11.5 mph - N/A   Mostly Cloudy
1:55 PM 30.9 °F 19.4 °F 15.1 °F 52% 30.08 in 10.0 mi WNW 17.3 mph 23.0 mph N/A   Overcast
2:14 PM 29.3 °F 19.1 °F 15.4 °F 56% 30.09 in 10.0 mi West 12.7 mph 18.4 mph N/A   Overcast
2:35 PM 28.9 °F 18.6 °F 15.4 °F 57% 30.09 in 10.0 mi NW 12.7 mph 16.1 mph N/A   Overcast
2:54 PM 28.4 °F 17.5 °F 14.4 °F 56% 30.09 in 10.0 mi NW 13.8 mph 19.6 mph N/A   Overcast
3:15 PM 29.1 °F 17.5 °F 14.9 °F 55% 30.09 in 10.0 mi WNW 16.1 mph 20.7 mph N/A   Overcast
3:35 PM 27.9 °F 16.8 °F 14.0 °F 56% 30.10 in 10.0 mi WNW 13.8 mph 17.3 mph N/A   Overcast
3:54 PM 27.1 °F 16.4 °F 14.9 °F 60% 30.10 in 10.0 mi NW 12.7 mph - N/A   Overcast
4:15 PM 27.9 °F 17.8 °F 14.4 °F 57% 30.10 in 10.0 mi NW 11.5 mph - N/A   Overcast
4:35 PM 27.0 °F 16.1 °F 13.8 °F 58% 30.11 in 10.0 mi NW 12.7 mph - N/A   Overcast
4:54 PM 26.8 °F 16.5 °F 14.4 °F 60% 30.11 in 10.0 mi NW 11.5 mph - N/A   Mostly Cloudy
5:15 PM 26.4 °F 17.3 °F 13.1 °F 57% 30.12 in 10.0 mi NNW 9.2 mph 16.1 mph N/A   Mostly Cloudy
5:34 PM 26.6 °F 16.8 °F 14.2 °F 60% 30.12 in 10.0 mi WNW 10.4 mph - N/A   Mostly Cloudy
5:55 PM 26.1 °F 15.6 °F 14.2 °F 61% 30.13 in 10.0 mi NW 11.5 mph - N/A   Overcast
6:15 PM 25.3 °F 15.3 °F 14.7 °F 64% 30.13 in 10.0 mi WNW 10.4 mph - N/A   Mostly Cloudy
6:34 PM 24.8 °F 14.6 °F 14.5 °F 65% 30.13 in 10.0 mi WNW 10.4 mph - N/A   Scattered Clouds
6:55 PM 24.4 °F 14.9 °F 15.6 °F 69% 30.14 in 10.0 mi WNW 9.2 mph - N/A   Scattered Clouds
7:15 PM 23.9 °F 14.2 °F 16.2 °F 72% 30.14 in 10.0 mi WNW 9.2 mph - N/A   Scattered Clouds
7:34 PM 23.5 °F 15.4 °F 15.8 °F 72% 30.14 in 10.0 mi WNW 6.9 mph - N/A   Scattered Clouds
7:55 PM 23.0 °F 15.8 °F 16.2 °F 75% 30.14 in 10.0 mi NW 5.8 mph - N/A   Clear
8:15 PM 22.6 °F 18.0 °F 16.3 °F 77% 30.14 in 10.0 mi WNW 3.5 mph - N/A   Scattered Clouds
8:34 PM 22.8 °F 18.2 °F 17.1 °F 79% 30.14 in 10.0 mi West 3.5 mph - N/A   Mostly Cloudy
8:55 PM 21.2 °F - 16.5 °F 82% 30.14 in 10.0 mi Calm Calm - N/A   Scattered Clouds
9:15 PM 21.6 °F - 16.5 °F 81% 30.14 in 10.0 mi Calm Calm - N/A   Scattered Clouds
9:34 PM 22.1 °F - 17.4 °F 82% 30.13 in 10.0 mi Calm Calm - N/A   Mostly Cloudy
9:55 PM 22.6 °F - 17.4 °F 80% 30.13 in 10.0 mi Calm Calm - N/A   Overcast
10:14 PM 22.6 °F 18.0 °F 17.4 °F 80% 30.13 in 10.0 mi WSW 3.5 mph - N/A   Overcast
10:35 PM 23.4 °F 17.4 °F 17.4 °F 78% 30.13 in 5.0 mi West 4.6 mph - N/A Snow Light Snow
10:55 PM 23.0 °F 18.4 °F 17.6 °F 80% 30.12 in 3.0 mi West 3.5 mph - N/A Snow Light Snow
11:14 PM 22.6 °F 18.0 °F 18.3 °F 83% 30.12 in 4.0 mi WSW 3.5 mph - N/A Snow Light Snow
11:35 PM 22.5 °F 17.8 °F 18.5 °F 85% 30.11 in 4.0 mi WSW 3.5 mph - N/A Snow Light Snow
11:54 PM 22.5 °F 17.8 °F 18.9 °F 86% 30.11 in 10.0 mi WSW 3.5 mph - N/A   Overcast